sat.trackr.live / text

‹ back to catalog

FLOCK 4BE-34

NORAD 60495 · 2024-149AD

PAYLOAD ACTIVE UNKNOWN

§ Identity

Operator
Country
US
Launch date
2024-08-16
Launch site
AFWTR
Launch vehicle
Mass (kg)
RCS (m²)

Purposes: earth_obs

External: N2YO · Heavens-Above · Gunter

§ Orbital elements

Epoch: 2026-05-25T05:30:22.859136Z

Period
93.48 min
Inclination
97.3777°
Eccentricity
0.0003372
Mean motion
15.40399404 rev/d
Perigee alt
442.6 km
Apogee alt
447.2 km
Semi-major
6,823.1 km
B*
3.6291e-4
RAAN
229.3943°
Arg perigee
32.6711°
Mean anomaly
327.4744°
Rev number
9,879

§ Raw data

FLOCK 4BE-341 60495U 24149AD  26145.22943124  .00014598  00000+0  36291-3 0  99992 60495  97.3777 229.3943 0003372  32.6711 327.4744 15.40399404 98796

JSON: /api/v1/satellites/60495 · /tle

For live sub-satellite position, see the globe view (requires WebGL).

§ Visibility from observer

Set your observer location to see the next 7 days of passes ≥ 10°. The values pass through the URL so the page stays shareable.

No JS? Fill the form by hand. The geolocation button needs JavaScript.